Weather Roundup
Issued by NWS Chicago, IL

Home | Current Version | Previous Version | Graphics & Text | Print | Product List | Glossary On
Versions: 1 2 3 4 5 6 7 8 9 10 11 12 13 14 15 16 17 18 19 20 21 22 23 24 25 26 27 28 29 30 31 32 33 34 35 36 37 38 39 40 41 42 43 44 45 46 47 48 49 50
000
NZUS59 KLOT 172003
HRRLOT

CHICAGO AREA WEATHER ROUNDUP
NATIONAL WEATHER SERVICE CHICAGO/ROMEOVILLE IL
200 PM CST SUN DEC 17 2017

NOTE: "FAIR" INDICATES FEW OR NO CLOUDS BELOW 12,000 FEET WITH NO
SIGNIFICANT WEATHER AND/OR OBSTRUCTIONS TO VISIBILITY.

* THESE STATIONS ARE NOT UNDER NWS QUALITY CONTROL. THEY ALSO MAY NOT
  REPORT WEATHER SUCH AS PRECIPITATION OR FOG.

ILZ005-006-012>014-019>023-172100-
NORTHEAST ILLINOIS

CITY           SKY/WX    TMP DP  RH WIND       PRES   REMARKS
OHARE          CLOUDY    40  34  79 CALM      29.97F HAZE
MIDWAY         CLOUDY    45  32  60 SW5       29.98F
AURORA         CLOUDY    42  32  67 S7        29.98F
LANSING*       MOSUNNY   47  34  59 SW9G16    29.99F
JOLIET*        CLOUDY    49  32  52 SW7       29.97F
WAUKEGAN       CLOUDY    37  33  85 CALM      29.97F FOG
DUPAGE AIRPORT CLOUDY    41  34  76 S6        29.96F HAZE
WHEELING       CLOUDY    41  35  79 CALM      29.98F
KANKAKEE*      CLOUDY    46  35  64 SW6       30.01F
MORRIS*        SUNNY     49  32  51 SW9       29.96F
LEWIS AIRPORT* CLOUDY    46  32  56 SW9       29.97F
NORTHERLY ISL    N/A     42  30  62 SW2         N/A
$$

WIZ051-052-058>065-066-070>072-172100-
SOUTHEAST WISCONSIN

CITY           SKY/WX    TMP DP  RH WIND       PRES   REMARKS
MILWAUKEE      CLOUDY    35  32  88 E7        30.00F FOG     WCI  29
KENOSHA*       CLOUDY    37  32  82 NE5       29.98F HAZE
RACINE*        CLOUDY    36  32  85 E3        30.00F FOG
WAUKESHA       CLOUDY    30  28  93 E7        30.00F FOG     WCI  23
WEST BEND      CLOUDY    32  32 100 E6        30.00F FOG     WCI  26
$$

INZ001>003-010>013-019-020-172100-
NORTHWEST INDIANA

CITY           SKY/WX    TMP DP  RH WIND       PRES   REMARKS
GARY*          NOT AVBL
MICHIGAN CITY* NOT AVBL
RENSSELAER*    NOT AVBL
VALPARAISO     CLOUDY    46  33  60 SW12      30.00F
$$

LMZ740>746-172100-
SOUTHERN LAKE MICHIGAN

STATION/POSITION TIME  SKY/WX   TEMP WIND        PRES    VSBY
                                AIR  DIR/SP/G
                 (UTC)          (F)  (DEG/KT/KT) (MB)    (MI)
HARRISON CRIB    1940            40  200/  8/  9   N/A
BURNHAM HARBOR   2000            42  180/  4/  8   N/A
CALUMET HARBOR   1930            44  200/  5/  6 1014.7F
BURNS HARBOR     1940            46  220/ 13/ 16 1016.3F
MICHIGAN CITY    1940            43  200/  5/  6   N/A
$$

ABBREVIATIONS USED IN REMARKS
   TC - TEMPERATURE IN CELSIUS
  WCI - WIND CHILL INDEX
   HX - HEAT INDEX
  VSB - VISIBILITY
$$




USA.gov is the U.S. government's official web portal to all federal, state and local government web resources and services.